Date String (YYYY-MM-DD hh:mm:ss) UTC,Instrument flags,absolute air pressure of the measurement (hPa),sample flow rate (lpm),inlet stack bypass flow (lpm),air temperature of the measurement (°C),ambient temperature measured by the external sensor (°C),aerosol sample conditioner tube jacket temperature (°C),OPC LED temperature (°C),internal box temperature (°C),relative humidity of the measurement (%),span deviation,mass concentration of particles derived from Lorenz-Mie calculation of OPC scattering (μg/m³),mass concentration of particles derived from Lorenz-Mie calculation of OPC scattering (μg/m³),mass concentration of particles derived from Lorenz-Mie calculation of OPC scattering (μg/m³)
DateTimeUTC,F1_M11,P_M11,Q1_M11,Q2_M11,T1_M11,T2_M11,T3_M11,T4_M11,T5_M11,U1_M11,ZSPAN_M11,X0_M11,X2_M11,X1_M11
2023-08-18 08:00:00,SystemResetWarning,0830.0,5.01,000.00,028.0,026.4,000.0,036.4,029.8,32.9,0000.0,0011.52,0006.29,0005.79
2023-08-18 08:01:00,SystemResetWarning,0830.0,4.99,000.00,028.0,026.6,000.0,036.5,029.8,32.8,0000.0,0011.95,0006.72,0006.18
2023-08-18 08:02:00,SystemResetWarning,0830.0,5.00,000.00,028.1,026.8,000.0,036.5,029.9,33.0,0000.0,0012.36,0007.10,0006.54
2023-08-18 08:03:00,SystemResetWarning,0830.0,5.00,000.00,028.1,026.9,000.0,036.5,029.9,33.2,0000.3,0012.90,0007.55,0006.96
2023-08-18 08:04:00,SystemResetWarning,0830.0,5.00,000.00,028.2,027.0,000.0,036.5,030.0,33.5,0000.6,0013.07,0007.87,0007.26
2023-08-18 08:05:00,SystemResetWarning,0830.0,5.01,000.00,028.2,027.2,000.0,036.6,030.0,33.5,0000.5,0014.06,0008.19,0007.59
2023-08-18 08:06:00,SystemResetWarning,0830.0,5.01,000.00,028.3,027.3,000.0,036.6,030.1,33.8,0000.8,0015.15,0008.62,0007.97
2023-08-18 08:07:00,SystemResetWarning,0830.1,4.99,000.00,028.3,027.1,000.0,036.6,030.1,33.9,0000.9,0016.20,0008.89,0008.23
2023-08-18 08:08:00,SystemResetWarning,0830.0,4.99,000.00,028.3,025.5,000.0,036.5,029.9,34.0,0001.5,0016.41,0009.13,0008.42
2023-08-18 08:09:00,SystemResetWarning,0830.0,5.00,000.00,028.2,024.7,000.0,036.4,029.7,33.9,0001.1,0017.44,0009.22,0008.50
2023-08-18 08:10:00,SystemResetWarning,0830.0,5.00,000.00,028.1,024.8,000.0,036.5,029.5,34.2,0001.2,0018.45,0009.37,0008.61
2023-08-18 08:11:00,SystemResetWarning,0830.1,5.01,000.00,028.1,025.1,000.0,036.5,029.5,34.3,0001.6,0018.54,0009.55,0008.72
2023-08-18 08:12:00,SystemResetWarning,0830.0,5.00,000.00,028.1,025.4,000.0,036.5,029.6,34.3,0001.3,0018.94,0009.76,0008.86
2023-08-18 08:13:00,SystemResetWarning,0830.1,5.00,000.00,028.1,025.8,000.0,036.5,029.7,34.2,0001.4,0019.46,0009.99,0009.00
2023-08-18 08:14:00,SystemResetWarning,0830.1,5.00,000.00,028.1,026.1,000.0,036.6,029.8,34.3,0001.2,0019.57,0010.13,0009.10
2023-08-18 08:15:00,SystemResetWarning,0830.1,5.00,000.00,028.1,026.3,000.0,036.6,029.9,34.5,0001.6,0019.77,0010.29,0009.19
2023-08-18 08:16:00,SystemResetWarning,0830.0,4.99,000.00,028.2,026.6,000.0,036.6,029.9,34.6,0002.1,0019.57,0010.43,0009.28
2023-08-18 08:17:00,SystemResetWarning,0830.0,5.00,000.00,028.2,026.8,000.0,036.6,030.0,34.9,0001.9,0019.51,0010.55,0009.36
2023-08-18 08:18:00,SystemResetWarning,0830.1,4.99,000.00,028.3,026.9,000.0,036.7,030.0,34.7,0001.5,0018.76,0010.73,0009.45
2023-08-18 08:19:00,SystemResetWarning,0830.0,5.00,000.00,028.3,027.1,000.0,036.7,030.1,34.7,0001.8,0018.73,0010.81,0009.53
2023-08-18 08:20:00,SystemResetWarning,0830.1,4.99,000.00,028.3,026.7,000.0,036.7,030.1,34.8,0001.7,0017.71,0010.90,0009.64
2023-08-18 08:21:00,SystemResetWarning,0830.0,4.99,000.00,028.3,025.1,000.0,036.6,029.8,34.7,0001.4,0016.46,0010.94,0009.70
2023-08-18 08:22:00,SystemResetWarning,0830.0,5.01,000.00,028.2,024.6,000.0,036.5,029.7,34.9,0000.7,0016.19,0010.97,0009.73
2023-08-18 08:23:00,SystemResetWarning,0830.0,5.00,000.00,028.2,024.7,000.0,036.5,029.5,35.3,0000.9,0016.16,0011.01,0009.78
2023-08-18 08:24:00,SystemResetWarning,0830.0,5.03,000.00,028.3,025.1,000.0,036.5,029.7,35.0,0000.9,0016.14,0010.97,0009.80
2023-08-18 08:25:00,SystemResetWarning,0830.0,4.96,000.00,028.6,025.4,000.0,036.6,029.9,34.2,0000.9,0016.58,0010.93,0009.82
2023-08-18 08:26:00,SystemResetWarning,0830.1,5.02,000.00,028.8,025.8,000.0,036.6,030.0,33.7,0001.2,0016.78,0010.90,0009.79
2023-08-18 08:27:00,SystemResetWarning,0830.1,5.01,000.00,028.9,026.1,000.0,036.7,030.0,33.1,0001.1,0017.12,0010.90,0009.79
2023-08-18 08:28:00,SystemResetWarning,0830.0,4.99,000.00,028.9,026.4,000.0,036.8,030.1,32.6,0000.8,0016.91,0010.87,0009.79
2023-08-18 08:29:00,SystemResetWarning,0830.0,4.99,000.00,029.0,026.6,000.0,036.8,030.1,32.4,0001.2,0016.51,0010.79,0009.77
2023-08-18 08:30:00,SystemResetWarning,0830.0,5.00,000.00,029.0,026.8,000.0,036.9,030.2,32.3,0001.3,0015.89,0010.65,0009.71
2023-08-18 08:31:00,SystemResetWarning,0830.1,5.00,000.00,029.1,027.0,000.0,037.0,030.2,32.2,0001.1,0015.94,0010.66,0009.70
2023-08-18 08:32:00,SystemResetWarning,0830.0,5.00,000.00,029.1,027.1,000.0,037.1,030.3,31.9,0001.7,0016.28,0010.69,0009.71
2023-08-18 08:33:00,SystemResetWarning,0830.0,4.99,000.00,029.2,026.4,000.0,037.1,030.2,32.1,0002.2,0016.41,0010.78,0009.80
2023-08-18 08:34:00,SystemResetWarning,0830.0,5.00,000.00,029.1,024.5,000.0,037.0,029.9,32.0,0002.5,0017.69,0010.87,0009.88
2023-08-18 08:35:00,SystemResetWarning,0830.0,5.00,000.00,029.0,023.6,000.0,036.9,029.6,31.7,0002.7,0018.94,0011.04,0010.00
2023-08-18 08:36:00,SystemResetWarning,0829.9,5.01,000.00,028.9,023.7,000.0,036.9,029.4,32.4,0002.6,0018.86,0011.18,0010.12
2023-08-18 08:37:00,SystemResetWarning,0830.0,5.01,000.00,028.7,024.1,000.0,036.9,029.4,32.1,0002.4,0019.80,0011.36,0010.27
2023-08-18 08:38:00,SystemResetWarning,0830.0,4.99,000.00,028.7,024.6,000.0,037.0,029.5,31.1,0002.0,0019.98,0011.51,0010.43
2023-08-18 08:39:00,SystemResetWarning,0830.0,5.00,000.00,028.7,025.0,000.0,037.0,029.6,30.4,0002.3,0020.37,0011.68,0010.57
2023-08-18 08:40:00,SystemResetWarning,0830.1,5.01,000.00,028.6,025.4,000.0,037.0,029.7,30.7,0002.3,0020.99,0011.84,0010.70
2023-08-18 08:41:00,SystemResetWarning,0830.0,5.00,000.00,028.6,025.8,000.0,037.0,029.8,31.7,0002.1,0021.05,0011.96,0010.81
2023-08-18 08:42:00,SystemResetWarning,0830.0,4.99,000.00,028.7,026.1,000.0,037.0,029.8,32.3,0002.5,0021.74,0012.09,0010.90
2023-08-18 08:43:00,SystemResetWarning,0830.0,5.00,000.00,028.7,026.3,000.0,037.0,029.9,32.4,0002.4,0021.96,0012.18,0010.96
2023-08-18 08:44:00,SystemResetWarning,0830.0,5.00,000.00,028.7,026.6,000.0,037.0,030.0,32.2,0002.1,0022.30,0012.25,0011.01
2023-08-18 08:45:00,SystemResetWarning,0830.0,5.00,000.00,028.7,026.7,000.0,037.0,030.0,31.8,0001.6,0022.60,0012.32,0011.04
2023-08-18 08:46:00,SystemResetWarning,0830.0,5.00,000.00,028.7,026.9,000.0,037.0,030.1,31.7,0001.5,0022.74,0012.32,0011.03
2023-08-18 08:47:00,SystemResetWarning,0830.1,5.00,000.00,028.8,027.0,000.0,037.1,030.1,31.5,0001.8,0023.42,0012.37,0011.00
2023-08-18 08:48:00,SystemResetWarning,0830.0,5.00,000.00,028.8,027.1,000.0,037.1,030.2,32.1,0001.7,0023.97,0012.41,0010.99
2023-08-18 08:49:00,SystemResetWarning,0830.0,5.00,000.00,028.8,027.2,000.0,037.1,030.2,30.5,0002.1,0024.52,0012.40,0010.96
2023-08-18 08:50:00,SystemResetWarning,0830.0,5.00,000.00,028.8,027.2,000.0,037.1,030.3,31.8,0002.4,0026.18,0012.44,0010.94
2023-08-18 08:51:00,SystemResetWarning,0830.0,4.99,000.00,028.8,025.8,000.0,037.0,030.0,31.7,0002.6,0026.57,0012.57,0010.93
2023-08-18 08:52:00,SystemResetWarning,0830.0,5.00,000.00,028.8,024.7,000.0,036.9,029.9,32.3,0002.6,0028.79,0012.68,0010.92
2023-08-18 08:53:00,SystemResetWarning,0830.0,5.01,000.00,028.7,024.7,000.0,036.9,029.8,32.0,0002.2,0029.80,0012.74,0010.90
2023-08-18 08:54:00,SystemResetWarning,0830.0,5.01,000.00,028.6,025.0,000.0,036.9,029.7,32.2,0001.7,0030.46,0012.74,0010.88
2023-08-18 08:55:00,SystemResetWarning,0830.0,5.00,000.00,028.6,025.3,000.0,037.0,029.7,31.8,0001.7,0031.16,0012.73,0010.84
2023-08-18 08:56:00,SystemResetWarning,0830.0,5.01,000.00,028.5,025.7,000.0,037.0,029.8,31.4,0002.1,0030.87,0012.72,0010.79
2023-08-18 08:57:00,SystemResetWarning,0830.0,5.00,000.00,028.6,026.0,000.0,037.0,029.9,31.9,0001.6,0029.56,0012.64,0010.73
2023-08-18 08:58:00,SystemResetWarning,0830.0,5.00,000.00,028.6,026.3,000.0,037.0,030.0,32.1,0001.3,0029.00,0012.56,0010.68
2023-08-18 08:59:00,SystemResetWarning,0830.1,5.00,000.00,028.6,026.5,000.0,037.0,030.0,32.1,0001.4,0027.90,0012.39,0010.62
